Wind_Speed
5 6 7 7 7 8 9 11 9 6 5 5 5 6 7 8 9 7 9 15 14 12 14 15 16 17 17 16 15 16 19 22 23 23 24 23 21 20 20 20 20 18 17 17 20 20 19 18 15 13 13 12 11 11 10 9 8 8 9 10 12 13 13 14 15 15 16 16 16 17 19 21 22 23 23 24 27 29 30 31 31 33 36 40 42 43
5 7 7 7 9 9 10 12 10 8 6 5 6 6 8 9 8 8 11 15 16 15 13 13 16 18 19 19 18 17 19 23 24 23 23 22 21 22 22 21 19 17 16 18 20 21 20 18 15 13 13 12 12 11 10 9 8 8 9 10 11 12 13 14 15 16 17 17 18 18 19 20 22 24 24 24 25 27 29 31 31 32 32 35 39 43
7 8 7 8 10 11 9 9 8 6 6 6 7 7 8 7 6 9 11 13 15 14 12 10 13 18 19 19 20 21 21 23 23 23 23 21 20 22 20 18 17 15 16 17 19 20 19 17 14 14 13 13 12 10 9 8 8 8 8 9 9 9 10 12 14 16 17 17 18 20 20 20 22 24 25 26 25 26 27 30 32 33 32 33 35 39
7 7 7 7 9 9 8 8 7 6 7 7 7 7 7 5 6 7 5 7 10 11 11 11 14 18 19 19 21 22 24 25 26 27 26 23 21 19 16 15 15 15 15 16 16 16 15 14 14 14 13 12 11 9 8 8 7 7 7 7 6 7 7 8 10 13 15 16 18 19 20 20 20 22 24 25 26 26 26 28 30 32 34 33 33 35
7 7 7 7 8 9 8 8 8 7 8 8 8 9 7 5 6 6 2 3 7 8 9 10 15 18 15 14 15 17 21 26 27 26 23 20 17 15 14 15 14 13 14 15 14 14 13 13 13 13 13 12 10 8 7 7 6 7 6 5 5 6 7 8 9 9 10 12 15 16 18 19 19 19 21 24 25 26 26 26 28 30 33 34 34 35
9 9 9 8 9 9 9 9 9 9 9 8 8 8 7 6 6 5 3 4 6 7 6 5 10 8 7 8 9 9 11 15 18 18 17 15 13 13 13 13 13 13 14 16 16 15 14 13 14 14 13 12 10 8 6 6 6 7 6 5 5 6 7 9 10 10 9 9 11 12 14 15 16 17 18 20 23 25 25 25 26 28 30 33 34 36
11 11 11 10 10 10 10 10 10 11 10 8 7 7 6 7 6 5 5 5 6 5 4 6 7 5 5 7 9 9 7 8 11 12 13 14 14 14 13 13 14 14 15 17 17 17 15 16 17 15 13 12 10 8 6 5 6 6 6 6 7 8 8 10 11 12 12 11 10 11 12 12 13 15 17 18 20 23 25 25 25 26 28 30 32 35
10 10 11 11 11 11 11 11 11 11 9 7 7 6 6 7 7 6 5 7 7 6 8 9 7 9 12 8 8 9 9 9 10 11 11 13 14 15 15 15 16 17 18 19 19 18 17 17 17 15 13 12 10 8 6 5 5 6 7 7 8 9 10 12 14 15 15 15 14 13 13 13 13 14 16 17 18 19 22 24 25 25 26 28 30 32
6 8 9 9 10 10 10 9 9 9 8 8 8 7 6 7 7 6 6 7 6 7 10 8 7 8 10 7 7 8 10 11 11 12 12 13 14 14 15 16 17 19 20 21 21 20 18 18 18 16 13 12 10 9 7 6 6 6 8 9 10 12 13 14 16 17 18 18 18 17 16 16 16 15 16 17 18 18 19 21 23 25 25 27 29 31
9 9 8 10 9 8 10 10 9 9 9 11 10 8 7 7 7 7 7 8 6 8 11 8 8 7 7 6 7 8 9 11 12 13 13 13 14 14 15 16 16 18 20 22 22 20 19 18 18 16 14 11 10 10 8 7 7 8 9 11 12 14 16 17 18 20 21 22 21 20 20 19 18 18 18 18 19 20 19 20 21 24 25 26 28 30
11 11 11 12 10 10 11 12 12 11 12 13 10 7 8 8 8 8 9 8 7 9 10 8 9 7 7 6 7 8 8 9 10 12 13 13 14 14 15 16 16 17 19 20 21 21 20 19 18 17 14 12 11 11 10 9 9 10 11 13 15 16 18 20 21 22 23 24 24 23 23 22 21 21 20 19 19 20 21 21 21 23 25 26 28 29
11 11 11 10 9 11 12 13 13 14 15 13 10 9 9 9 9 9 10 9 8 7 6 8 8 8 8 6 4 5 7 7 8 11 12 12 13 14 16 17 17 18 18 19 20 22 22 20 19 18 15 13 12 12 11 11 11 12 13 15 17 19 21 22 23 24 25 26 26 25 25 24 23 23 22 21 20 20 21 22 22 23 24 26 28 29
10 11 11 10 9 10 11 11 12 14 17 14 12 12 11 9 9 9 8 8 8 6 6 9 8 8 12 13 9 8 9 9 9 11 12 13 13 14 16 17 18 19 19 20 21 22 22 22 20 19 17 15 15 14 13 14 14 15 16 18 20 22 23 24 25 26 27 28 27 27 26 25 24 24 23 23 22 20 20 21 22 23 25 26 28 29
9 9 12 13 12 12 12 13 12 13 16 17 16 15 13 9 7 7 7 8 10 6 6 8 7 7 11 14 13 11 11 11 12 12 13 14 14 15 15 17 19 20 21 21 21 22 23 22 21 19 18 18 17 16 16 16 17 18 20 21 22 24 25 26 27 28 28 29 29 28 27 26 25 24 24 24 24 23 21 20 21 23 25 27 28 29
9 8 7 7 8 8 10 12 12 11 13 17 17 15 16 14 11 8 7 8 8 3 8 9 7 7 8 7 8 9 10 12 13 14 14 13 13 13 14 18 21 21 21 21 21 22 23 22 22 20 19 18 17 17 17 18 20 21 22 23 24 26 27 27 28 29 29 30 30 29 28 27 26 25 25 25 26 26 24 23 22 23 24 27 28 30
10 9 7 8 8 7 8 9 11 12 13 14 16 17 20 20 16 14 11 11 11 5 6 9 9 11 12 10 13 15 13 13 14 14 14 12 11 11 12 15 19 20 20 21 22 23 23 23 23 21 19 18 18 19 20 21 22 23 23 23 25 27 28 28 29 29 29 30 30 29 28 28 27 27 27 27 27 27 28 27 26 25 25 26 29 30
10 9 7 9 11 8 8 9 10 12 11 10 14 19 20 19 18 17 14 12 13 11 10 13 14 15 16 16 18 19 15 13 14 14 15 13 11 11 11 12 16 18 19 20 21 22 23 23 22 20 18 18 19 20 22 23 23 22 22 23 25 27 28 28 28 28 29 29 29 29 28 28 27 28 29 29 28 28 29 29 30 29 28 28 29 30
11 12 10 10 11 10 11 12 12 15 15 12 15 16 15 17 18 17 13 9 10 10 12 16 17 16 15 12 11 15 16 15 14 15 15 14 13 11 11 11 14 17 18 19 20 20 20 20 20 20 18 19 20 21 23 23 22 22 22 24 26 27 27 27 27 27 27 28 28 28 28 28 28 28 29 30 30 30 30 31 32 32 32 32 31 31
9 14 14 11 10 12 13 12 13 15 16 17 19 16 14 16 17 17 14 10 10 9 9 14 17 17 19 16 11 13 16 16 16 17 17 15 14 12 12 12 14 17 18 19 20 20 20 20 20 20 20 19 19 22 23 23 23 22 23 24 25 26 27 26 26 26 26 27 27 28 28 28 28 29 30 31 32 32 32 33 33 34 35 35 35 34
8 12 15 11 9 11 13 14 16 16 14 15 18 19 19 20 20 21 19 16 15 11 10 14 15 16 20 20 17 15 15 15 16 18 18 16 15 14 14 14 16 18 19 19 20 20 20 20 19 21 21 19 19 23 24 24 23 23 23 23 24 26 26 27 27 27 27 27 27 28 28 29 29 30 31 32 33 34 34 35 36 36 37 37 37 37
11 12 17 15 12 14 15 15 17 18 15 13 15 18 20 22 22 23 23 25 22 14 10 11 12 18 21 17 17 16 15 16 17 18 18 16 15 16 15 16 17 18 19 20 20 19 20 19 20 22 21 18 20 23 23 24 23 23 24 24 25 26 26 27 27 28 28 27 28 29 30 30 31 31 32 33 33 34 36 37 39 39 39 39 39 39
12 13 17 19 19 22 21 18 18 17 15 15 17 19 20 22 23 19 18 26 29 22 17 14 13 21 22 14 14 15 14 16 18 18 19 16 15 17 17 18 19 19 20 20 20 20 19 19 22 24 20 17 21 23 23 24 24 25 26 26 26 27 27 28 28 29 29 29 30 31 31 31 31 32 33 33 34 35 37 39 41 42 42 41 40 39
17 16 19 24 25 27 26 23 23 23 22 23 25 25 25 25 25 21 16 20 24 23 25 23 19 23 23 15 16 18 17 18 18 18 19 17 16 18 18 19 19 20 20 20 20 20 20 20 22 21 19 18 22 24 25 26 25 26 28 28 28 28 28 29 29 29 29 30 31 32 32 32 32 32 33 33 35 36 38 40 41 43 43 42 40 38
18 14 17 24 25 27 27 25 26 27 26 27 28 27 25 23 24 24 22 23 22 20 24 21 16 22 24 20 21 23 21 21 21 21 21 18 17 18 19 20 20 20 21 20 20 20 20 20 20 19 20 22 25 26 26 27 27 28 29 29 29 29 29 30 30 30 30 31 32 33 33 33 33 33 33 34 36 37 39 40 41 42 41 40 39 37
14 11 14 18 17 19 19 16 17 18 18 19 20 19 19 19 20 21 23 24 23 25 29 23 17 23 24 18 20 23 22 23 22 23 24 23 20 19 20 21 21 21 21 21 22 22 21 20 20 21 23 25 27 28 28 28 28 29 30 29 29 29 29 30 30 31 31 32 33 33 33 33 33 33 34 35 37 38 39 40 40 38 37 37 37 36
14 13 16 16 13 13 13 11 12 12 13 17 19 18 20 21 21 22 22 21 20 25 31 29 25 30 29 23 22 22 21 23 24 24 25 25 23 21 21 22 22 22 23 23 22 23 23 23 22 24 26 27 28 30 30 30 30 30 30 30 30 29 29 30 31 31 32 33 33 33 33 33 34 34 35 37 38 38 39 39 37 35 35 35 36 35
16 16 18 18 19 21 22 21 19 17 19 22 22 23 24 24 23 23 22 23 25 26 31 34 32 32 31 29 27 25 22 22 24 24 24 24 23 22 22 23 24 24 24 24 23 24 26 25 24 26 29 29 29 30 31 32 32 31 31 31 30 30 30 30 30 31 32 32 33 33 33 34 34 36 37 38 38 38 38 37 35 34 34 36 36 36
17 19 19 19 22 26 27 28 26 23 24 25 25 26 26 26 24 24 25 28 29 25 28 36 38 35 33 31 28 28 29 28 25 24 23 24 24 24 22 22 24 25 25 25 25 25 26 25 25 28 29 29 30 32 33 33 32 31 31 31 30 30 30 30 30 31 32 32 32 33 34 35 36 37 38 38 38 38 37 35 34 34 36 37 38 37
17 20 20 19 23 26 27 28 26 25 25 26 27 28 29 29 28 29 31 32 31 27 29 37 43 43 42 39 35 32 32 31 30 27 25 25 25 24 24 24 25 25 25 25 25 25 25 25 27 29 29 30 32 33 33 33 32 31 31 31 30 30 29 29 30 31 32 32 33 34 35 37 38 39 39 38 37 36 35 34 34 35 37 38 38 38
17 19 17 17 23 28 29 28 26 26 27 28 30 31 31 32 30 30 32 33 33 35 36 41 46 46 45 45 44 37 32 34 36 35 33 32 28 26 25 25 26 26 25 25 24 24 25 26 28 29 30 32 33 34 33 32 31 31 31 30 30 29 29 30 31 31 32 32 33 34 36 38 39 39 39 38 37 36 35 34 35 36 37 38 38 38
17 19 17 16 22 29 31 28 25 26 26 27 30 32 32 32 32 32 33 35 36 36 38 40 44 45 44 44 44 39 34 38 40 39 39 38 33 29 27 27 27 26 24 23 23 25 27 27 28 29 31 33 33 32 32 31 31 30 30 29 29 29 30 30 31 31 31 32 33 35 36 38 39 39 39 39 38 36 35 35 36 37 37 38 38 38
17 20 20 18 21 27 29 24 22 24 25 27 33 38 38 36 36 36 35 34 33 33 37 38 39 41 42 41 40 37 33 34 36 37 39 38 34 31 30 28 26 24 23 23 25 27 28 27 28 30 31 32 31 30 31 30 30 29 29 29 29 30 30 30 30 30 30 31 33 35 36 38 38 39 39 39 38 37 36 36 36 37 38 38 39 39
19 20 21 19 20 27 27 22 22 22 21 25 32 34 31 29 29 30 30 29 28 30 34 37 36 37 37 35 33 31 29 28 29 29 29 29 28 28 28 27 24 23 24 24 26 27 27 27 29 29 30 29 29 29 29 29 28 28 29 29 29 30 30 30 30 29 30 31 32 34 36 37 38 39 39 39 38 37 36 36 37 37 38 39 40 41
21 21 23 21 21 26 27 24 22 18 17 25 31 25 19 20 21 22 25 27 27 28 31 34 36 35 33 31 29 27 26 25 23 23 25 27 27 25 24 24 23 24 25 26 26 27 27 28 28 28 28 27 27 27 27 27 28 28 29 29 30 30 30 29 29 29 29 31 32 34 36 38 39 40 40 38 37 36 36 36 36 37 38 40 41 42
24 24 24 24 24 26 27 24 17 15 19 27 29 23 20 21 22 24 27 28 29 29 30 33 36 37 36 33 31 30 29 26 27 31 32 32 29 23 21 23 25 25 25 25 26 27 27 27 27 27 26 25 25 26 26 27 28 28 28 29 29 29 29 28 28 28 29 31 33 35 37 39 40 39 38 37 36 35 35 35 36 37 38 39 41 42
26 26 24 24 25 24 24 21 15 16 22 28 28 27 25 23 22 23 25 27 27 26 26 30 34 35 35 33 33 32 31 30 34 37 36 32 25 22 24 25 25 25 25 26 26 27 27 27 26 24 24 24 25 26 27 28 28 28 28 28 28 28 28 28 28 28 29 31 33 36 38 39 39 37 36 35 34 34 34 34 35 36 37 38 40 42
25 26 24 24 24 23 23 24 23 22 25 28 27 23 18 16 16 17 21 27 27 23 24 27 29 31 31 30 30 28 28 33 37 37 38 35 25 21 26 27 25 25 26 26 26 26 26 26 24 23 23 24 26 27 28 28 28 28 28 28 27 27 28 28 28 28 30 32 34 36 38 38 37 35 34 33 32 32 32 33 34 35 36 38 40 42
23 24 23 21 23 22 21 21 18 16 18 20 17 12 11 14 16 15 19 27 28 23 24 25 25 27 30 29 27 22 20 29 36 36 36 34 28 26 28 27 25 26 25 25 26 25 25 24 22 22 24 25 26 27 27 27 27 27 27 26 26 27 29 29 29 29 30 33 35 37 38 37 35 33 33 32 31 31 31 32 34 36 37 39 41 44
20 21 22 22 23 23 21 18 14 14 17 17 14 15 18 21 20 18 20 26 26 21 23 25 22 22 26 28 27 20 15 22 31 34 34 33 30 29 28 25 24 25 24 25 26 25 24 23 22 23 24 24 25 25 26 27 27 26 26 26 27 29 30 30 30 30 31 34 35 36 36 35 33 32 31 30 30 30 31 32 34 36 37 40 43 47
18 18 20 22 23 22 22 20 18 20 21 17 16 21 25 25 24 19 15 18 19 16 18 22 21 20 22 22 23 22 20 21 24 28 32 33 29 25 24 24 24 24 24 25 25 23 22 22 22 23 23 23 24 25 26 27 26 25 25 26 28 29 30 31 31 30 32 34 35 35 35 33 32 31 30 30 30 30 30 32 34 36 38 41 45 47
17 17 19 21 22 22 22 21 21 21 21 19 19 23 25 24 21 16 13 17 22 22 24 28 30 30 28 23 21 23 21 17 19 24 26 25 25 23 23 23 23 23 23 23 22 21 20 21 22 22 22 23 24 25 25 25 25 25 26 27 29 30 31 31 31 31 33 34 34 34 33 31 30 30 29 29 30 29 29 31 33 36 39 43 46 45
14 15 17 18 19 20 21 20 20 21 20 19 18 18 19 18 15 15 19 23 25 26 29 32 33 33 31 27 23 24 20 13 13 18 18 17 20 22 21 21 22 21 21 21 21 21 20 21 22 22 22 23 23 24 24 24 24 25 27 28 29 30 31 32 31 32 33 34 33 32 31 30 29 29 29 29 29 29 28 30 33 36 40 44 44 41
13 14 16 17 17 18 19 18 16 14 14 14 16 17 18 19 18 21 25 26 25 26 28 30 31 30 30 29 25 22 21 13 8 13 17 17 19 21 21 21 21 20 19 20 20 21 20 20 21 22 22 22 23 23 23 23 25 27 28 28 29 30 31 31 32 33 33 33 32 31 29 28 28 29 29 29 28 28 28 30 32 36 39 41 40 36
17 17 16 16 15 14 16 16 14 13 14 17 20 22 21 20 22 25 27 26 25 24 25 29 30 28 28 31 27 23 20 15 10 14 20 20 20 21 20 20 19 18 18 19 20 20 20 20 21 22 22 22 22 22 22 23 26 28 28 29 29 30 30 31 32 32 31 31 31 29 26 26 27 28 29 29 28 27 28 30 32 36 39 39 35 32
19 19 17 18 19 17 20 25 25 26 27 24 22 22 23 24 25 26 26 27 27 24 24 28 29 27 27 29 28 26 21 16 12 15 20 20 20 20 18 17 17 18 18 19 19 20 20 20 21 21 21 21 21 21 22 24 27 29 29 29 29 29 30 31 31 30 29 30 28 26 24 25 26 27 28 27 27 27 28 30 33 36 39 37 32 27
21 22 21 23 25 25 28 31 30 28 26 22 19 21 24 26 27 25 24 25 26 24 24 26 28 27 25 24 25 24 20 15 12 14 18 18 17 17 16 17 17 17 18 19 19 19 19 18 19 19 19 20 20 21 24 26 27 29 29 28 28 28 30 30 29 28 28 27 25 23 23 24 25 26 26 26 26 27 28 30 33 35 38 37 30 23
21 22 22 23 24 25 26 27 24 23 24 22 21 23 23 24 25 23 21 23 24 24 24 25 26 25 22 21 21 22 21 17 14 16 17 16 15 16 16 17 17 16 17 18 18 17 16 16 17 17 18 19 20 22 24 25 27 28 27 27 27 28 28 27 26 26 25 24 22 22 23 23 24 25 25 25 26 27 27 29 31 34 37 36 28 21
19 19 20 20 22 25 27 27 25 25 25 23 21 20 18 19 22 21 19 21 23 23 23 24 23 21 21 20 20 23 22 18 14 11 11 12 14 15 16 16 16 15 15 15 14 13 13 14 15 16 17 18 20 21 23 25 27 27 26 26 27 27 26 24 24 23 22 21 21 22 22 23 24 24 25 25 26 27 27 28 29 32 35 36 29 21
22 24 25 22 24 27 28 26 23 22 21 19 18 17 16 18 22 21 18 19 20 20 21 22 19 16 15 16 20 24 20 16 12 8 6 8 12 14 15 15 14 13 13 12 11 10 11 13 14 15 15 16 18 19 22 24 26 25 26 26 26 25 23 22 22 21 20 20 21 22 23 23 24 24 24 25 25 26 27 28 29 30 33 33 29 23
24 27 25 22 24 27 24 20 17 19 22 23 21 21 20 21 22 20 18 18 20 19 19 17 14 13 12 13 19 20 14 11 10 8 7 8 9 11 12 12 11 11 10 9 8 9 10 11 12 13 13 14 14 17 20 22 24 24 24 24 23 22 20 20 20 19 19 20 21 22 23 24 25 25 25 25 25 25 25 26 28 30 32 32 28 24
23 24 22 21 25 27 25 22 21 24 28 27 25 25 25 24 23 20 18 18 19 19 16 12 10 13 15 14 14 13 10 8 8 7 6 8 8 8 9 8 8 8 7 6 7 9 9 9 10 11 10 10 11 13 16 19 21 22 21 20 20 19 17 17 18 18 18 20 21 22 23 24 25 26 26 25 25 25 25 25 26 28 31 32 28 23
Wind_Direction
194 202 210 213 207 197 201 207 216 223 208 205 222 238 237 245 249 230 235 246 238 231 233 233 234 235 235 233 230 233 238 241 245 248 250 254 258 259 257 254 250 247 245 243 239 233 232 240 244 246 249 245 245 248 248 244 244 249 249 247 246 247 249 251 254 257 260 265 268 268 268 268 267 262 256 250 247 247 249 250 250 249 247 245 244 244
200 210 214 212 214 211 211 215 218 219 212 216 230 246 247 244 246 237 247 256 247 241 242 235 238 243 241 240 237 234 240 249 252 252 253 256 259 260 258 255 250 243 242 238 233 228 227 234 238 239 240 236 236 244 245 240 241 247 247 245 245 248 252 255 258 258 258 260 264 266 267 268 270 270 267 261 253 249 248 250 251 250 249 247 245 244
219 219 220 226 225 219 218 221 219 209 205 223 236 249 252 235 232 249 256 258 246 237 239 240 249 252 247 245 243 240 244 251 252 248 248 250 253 259 257 248 238 230 235 236 229 227 228 231 231 230 230 229 233 239 238 235 237 245 247 246 247 251 255 257 260 261 261 260 260 261 263 265 268 270 270 269 265 258 251 248 249 250 249 247 246 245
226 214 218 236 225 215 224 222 209 205 216 229 240 249 250 231 238 250 239 243 243 236 239 252 267 265 255 250 249 246 245 246 247 248 249 250 252 253 243 228 220 220 228 231 227 225 225 225 224 224 225 227 231 231 229 232 236 240 241 244 255 265 268 266 263 261 262 262 260 259 260 262 266 270 271 270 269 266 261 253 249 249 249 248 247 245
240 230 235 242 224 218 221 214 208 223 234 232 239 251 252 236 243 248 211 240 258 252 249 265 276 267 251 246 247 244 247 246 246 249 249 249 247 235 221 214 212 218 225 224 219 217 219 222 223 223 224 225 222 218 221 228 229 229 232 246 267 279 284 287 282 273 266 262 262 262 260 261 265 270 274 274 272 270 267 262 255 250 248 248 248 247
241 241 247 245 231 223 219 219 222 232 247 247 240 241 238 226 225 230 228 250 255 239 230 275 283 254 207 225 231 232 250 246 239 241 239 238 234 220 212 209 208 214 222 223 221 220 220 222 223 223 224 220 210 207 213 220 222 227 238 257 276 285 292 297 296 291 285 275 270 270 267 267 270 273 276 278 277 274 271 267 263 257 252 249 247 247
238 239 245 244 237 229 226 233 233 235 253 257 237 228 220 213 212 213 220 243 259 249 237 270 279 262 257 249 222 219 236 224 221 228 225 225 225 219 214 211 211 214 219 222 224 226 226 226 226 226 224 216 209 208 211 220 231 240 254 269 281 290 297 302 302 301 300 295 289 284 280 278 279 281 280 280 280 277 275 272 268 264 259 255 252 249
234 237 242 244 240 232 230 238 239 237 245 243 236 237 211 197 208 215 225 245 271 295 278 259 249 267 277 260 217 223 227 216 221 226 221 220 221 219 216 215 215 216 219 222 225 227 229 230 230 229 226 221 217 218 222 234 252 261 269 277 284 292 299 303 304 306 307 306 303 299 294 289 288 291 289 284 281 278 276 273 271 267 264 262 260 257
238 238 240 236 231 229 227 235 242 233 231 242 249 243 207 198 215 221 239 255 267 291 274 229 205 256 269 240 218 222 221 222 225 224 221 216 214 215 216 216 218 220 224 227 227 227 229 231 232 231 231 229 226 225 231 246 264 275 281 285 288 292 298 302 303 306 307 308 308 306 303 298 294 295 296 291 285 281 276 271 268 266 265 265 264 263
258 249 243 233 223 227 231 232 235 226 225 241 248 236 216 217 225 225 245 259 255 272 270 220 197 252 274 238 219 209 218 234 233 228 222 214 214 217 218 219 220 223 227 228 226 228 232 234 235 238 239 236 233 232 237 252 267 278 284 288 291 293 297 300 301 303 304 306 308 307 306 303 298 296 298 297 292 287 281 274 268 263 262 263 264 264
260 259 254 247 234 231 235 231 228 223 221 231 234 223 221 225 229 235 245 254 256 259 254 215 199 240 275 258 232 217 225 237 232 224 215 214 220 223 224 224 222 223 226 227 227 230 236 238 239 244 246 241 238 238 244 258 269 275 282 287 290 293 295 297 298 299 301 303 304 306 307 305 302 298 298 298 296 291 286 280 273 266 261 260 261 263
266 268 262 260 250 244 245 240 236 231 224 224 222 216 225 226 224 238 236 230 250 252 215 189 194 221 245 253 239 221 229 235 224 214 212 220 230 233 234 231 226 225 226 226 229 234 236 237 240 246 247 244 243 246 255 266 271 275 281 287 289 291 292 293 293 295 297 299 301 302 304 303 302 300 299 299 298 294 289 284 278 272 266 261 259 259
264 263 265 273 268 254 246 236 234 235 227 221 219 220 231 234 228 241 236 220 243 245 171 171 192 218 240 254 263 253 245 238 221 215 221 229 235 238 239 238 233 228 226 226 230 236 236 235 240 245 246 246 249 255 263 268 272 277 281 286 286 287 287 287 288 290 292 295 296 298 300 299 298 299 300 301 300 298 293 287 282 276 270 265 261 259
263 248 258 268 264 248 232 223 225 230 224 217 217 219 227 244 252 247 241 240 251 237 167 175 200 231 252 256 252 245 242 236 228 230 236 236 236 235 233 235 234 229 228 230 231 235 237 237 241 245 246 248 252 259 267 270 274 278 281 284 283 281 282 282 283 285 288 290 293 295 296 295 294 295 298 300 302 301 299 293 286 279 272 267 262 261
268 253 239 237 244 244 236 234 237 241 234 225 225 231 235 246 260 257 257 268 267 211 156 171 194 226 243 232 221 234 243 238 233 234 239 243 243 239 234 233 235 232 229 231 230 231 236 239 243 247 249 252 258 265 270 272 275 277 279 281 279 277 277 277 279 281 283 286 289 292 293 292 291 291 294 298 300 301 302 299 294 286 277 270 264 261
262 261 233 221 236 245 251 253 248 251 253 237 228 234 239 242 251 262 276 284 286 284 183 190 215 235 242 245 247 259 264 249 239 237 239 244 246 247 247 240 236 234 229 228 228 230 235 240 245 250 253 258 265 270 271 272 274 276 277 277 274 273 273 274 275 277 280 283 286 289 290 289 288 289 292 295 297 300 302 302 299 295 287 278 270 264
256 252 236 246 258 253 246 248 240 240 251 241 229 236 241 243 249 260 269 264 263 274 250 227 231 239 250 260 255 253 255 247 240 239 238 240 243 248 250 241 232 229 226 226 226 228 234 239 245 253 259 265 269 270 270 273 274 274 274 274 272 271 271 272 273 275 277 281 284 286 286 286 286 288 291 293 296 298 301 302 301 298 294 287 279 271
262 264 261 263 269 265 253 253 250 244 245 242 242 249 249 245 247 251 260 257 241 255 256 232 223 231 247 257 242 228 232 238 236 234 235 237 241 244 243 237 228 222 222 223 224 227 230 233 241 251 261 268 269 269 270 272 273 271 270 271 271 270 271 271 272 274 276 279 282 283 283 284 284 286 290 292 295 298 300 301 301 299 297 293 288 281
263 272 271 262 255 259 261 263 261 254 250 250 251 254 253 252 251 243 243 255 251 254 257 232 223 234 245 245 236 226 229 234 228 224 225 229 234 237 234 229 222 218 219 221 224 228 230 232 237 246 257 262 263 265 269 271 271 270 270 271 271 270 270 270 271 273 275 277 279 281 282 283 284 286 289 292 296 299 300 301 300 299 297 294 291 287
268 276 270 258 244 258 265 261 260 260 261 262 258 253 251 254 258 253 247 251 255 258 260 250 242 245 247 245 245 246 240 234 226 219 218 221 228 229 225 220 218 219 221 222 227 230 232 235 236 242 251 258 260 263 267 269 270 271 273 274 273 272 269 268 269 270 273 275 277 280 281 283 284 286 289 293 296 299 300 301 300 299 297 294 292 289
275 270 266 264 257 261 263 257 261 267 264 257 255 253 253 252 256 260 257 254 257 264 265 263 259 256 257 252 243 245 245 236 228 220 217 219 224 223 220 219 219 222 224 227 230 231 233 237 238 241 250 259 262 263 266 267 268 271 275 276 275 272 268 266 267 268 271 274 276 278 280 282 283 286 289 292 295 297 299 300 300 299 297 295 292 290
275 267 269 271 265 262 263 263 265 267 264 261 261 259 258 259 260 263 261 254 254 257 261 267 268 262 264 260 241 241 245 240 233 226 223 223 225 224 222 223 223 223 226 230 232 232 233 236 238 245 253 257 259 263 266 266 268 272 274 276 276 272 268 266 267 268 271 274 277 279 280 281 283 286 289 292 295 296 297 297 298 298 298 296 294 291
277 275 273 271 268 266 268 268 265 262 265 268 267 265 265 265 263 262 266 265 261 262 264 267 266 262 263 261 253 254 254 247 237 228 228 231 234 232 228 227 227 227 228 230 232 233 234 235 241 254 263 260 257 260 263 265 268 270 273 276 276 272 269 268 268 271 274 277 279 279 281 282 285 288 290 293 295 296 296 296 297 298 297 297 295 292
278 275 273 273 276 276 273 271 266 260 260 263 264 264 264 267 266 265 270 276 275 269 266 265 262 261 261 258 258 259 257 250 242 235 236 238 239 236 233 232 230 229 231 232 233 237 244 250 256 263 262 259 259 260 261 264 265 268 273 277 276 273 270 270 272 275 277 278 279 280 282 285 288 290 292 294 295 295 296 296 297 297 296 295 294 293
276 270 275 280 285 284 278 273 266 254 248 258 263 262 264 270 278 281 279 276 272 264 260 259 260 263 264 262 263 262 254 247 243 241 243 245 243 239 237 234 231 231 233 235 237 244 256 264 264 258 254 257 262 262 261 263 264 269 274 276 274 271 270 271 273 275 276 277 279 281 284 287 289 291 293 295 295 295 296 297 296 294 293 293 293 292
276 269 268 272 275 279 281 281 282 276 272 277 277 272 274 277 281 287 287 279 274 270 265 261 264 268 267 264 266 265 254 245 243 244 247 247 244 243 240 234 232 234 235 237 240 245 254 259 257 256 258 260 261 263 263 263 265 270 273 272 270 269 269 271 273 275 277 278 281 284 286 289 291 293 294 295 295 296 296 295 293 290 289 290 290 289
272 267 260 259 261 267 274 280 286 288 284 284 283 279 278 277 276 279 277 268 269 275 273 270 274 278 275 269 265 261 255 251 248 243 240 238 238 243 244 238 235 236 236 238 241 246 254 260 257 257 260 261 260 262 263 263 267 270 270 269 269 269 270 271 273 275 277 280 283 286 288 291 293 294 295 296 296 296 296 293 288 285 285 286 286 286
265 266 262 261 262 264 271 278 282 282 278 279 281 280 278 276 273 268 263 263 267 270 271 272 274 275 274 273 270 262 259 259 256 245 236 234 238 241 242 240 236 235 236 239 246 254 260 260 257 257 259 259 259 260 261 264 268 269 269 270 269 269 270 271 273 275 277 280 284 287 290 292 294 295 296 297 297 297 295 289 283 281 282 283 284 284
262 264 266 267 267 268 272 276 279 279 278 277 277 277 275 273 270 264 262 265 265 262 265 271 272 272 271 270 269 266 264 261 258 254 249 245 244 243 239 237 234 233 236 243 253 261 260 254 253 257 258 256 256 258 261 264 267 268 269 270 269 269 269 270 273 275 278 281 285 288 290 292 294 296 297 297 297 296 292 286 281 280 281 282 282 282
269 269 269 269 270 272 273 274 277 277 277 277 275 273 272 270 268 266 265 267 266 263 266 271 274 275 273 270 270 270 268 263 260 258 256 251 248 243 237 233 233 235 241 247 253 258 260 258 255 254 254 254 256 259 262 264 266 268 269 269 268 269 270 272 274 276 279 283 286 289 291 293 295 297 297 297 296 293 289 284 282 281 281 281 280 280
271 271 272 274 275 275 273 273 274 273 273 275 273 271 269 267 267 266 266 267 266 264 267 271 272 274 274 271 271 274 274 270 264 257 254 255 254 246 237 234 236 237 241 244 248 257 263 262 255 251 252 254 257 259 262 264 266 267 268 269 269 271 272 274 276 279 282 285 288 291 293 295 297 297 297 296 295 292 288 285 283 281 280 279 278 277
267 271 275 277 274 273 273 274 272 273 276 274 270 270 270 269 269 269 269 268 265 264 270 271 268 270 273 272 271 274 274 270 265 259 256 256 253 243 235 235 236 235 238 243 251 261 262 256 250 249 250 253 256 259 261 264 266 267 268 270 272 274 276 277 279 281 285 288 291 294 296 297 298 298 297 296 294 291 288 286 284 282 281 280 278 276
264 266 271 272 270 270 273 274 275 279 280 270 266 270 275 274 272 272 272 271 267 268 272 270 264 267 272 273 272 270 264 260 262 262 256 248 241 236 233 232 231 234 241 248 256 258 254 248 248 249 250 253 257 259 261 263 265 267 270 273 275 277 278 280 282 284 288 292 294 297 299 299 299 299 298 297 294 292 289 288 287 285 284 282 279 277
259 258 261 263 264 268 272 275 275 272 265 264 268 271 274 274 274 272 271 272 272 270 269 269 270 269 268 269 271 265 256 254 252 242 231 228 229 230 229 229 232 240 248 253 254 252 248 248 250 250 252 256 257 258 260 262 265 269 272 274 276 277 278 281 284 287 291 294 297 300 301 300 300 300 299 297 295 293 292 292 291 289 287 285 282 279
255 253 255 256 258 263 270 273 270 258 257 266 272 274 274 277 277 275 274 274 274 272 271 270 271 271 269 269 269 264 257 251 241 231 227 229 234 235 231 233 239 246 251 251 248 246 248 250 251 252 254 255 255 256 259 262 267 270 272 274 274 276 278 281 285 290 293 296 300 302 302 302 302 301 299 297 296 295 295 296 295 293 291 288 285 282
249 250 251 254 256 260 263 261 255 259 268 275 278 280 280 277 271 273 278 278 275 275 276 273 271 272 271 269 268 265 259 248 238 234 231 230 233 235 233 236 242 246 248 248 246 246 250 251 252 253 253 253 255 259 262 265 269 270 271 272 273 275 278 281 286 290 293 298 301 302 302 304 303 301 299 297 297 298 299 299 298 296 294 292 289 286
246 248 250 254 255 256 260 261 263 269 275 279 280 278 277 274 272 278 285 284 283 283 283 281 277 274 270 266 265 264 259 250 242 236 232 230 230 229 231 236 244 247 248 248 248 250 252 252 253 254 254 256 259 262 265 267 268 268 269 270 272 274 277 281 286 289 293 299 301 302 305 306 304 302 300 300 300 301 301 301 300 300 299 296 293 291
244 243 247 253 256 258 263 269 271 269 271 275 274 270 281 291 290 290 290 290 290 289 287 286 284 278 274 270 268 269 267 257 245 232 228 229 226 225 231 238 244 246 247 249 250 251 252 252 255 257 259 261 262 263 265 266 266 267 267 268 270 273 276 280 285 289 294 299 301 304 307 307 304 302 301 302 303 303 303 304 304 304 302 300 298 296
248 246 247 251 256 259 261 264 264 263 269 274 273 271 281 289 290 289 291 289 286 283 282 280 276 277 277 271 266 268 272 260 244 229 226 229 224 221 228 236 241 245 248 251 251 251 252 256 259 262 263 263 263 263 264 264 264 264 264 266 269 271 274 280 284 289 295 298 301 305 308 306 304 303 303 304 303 303 305 308 308 307 304 303 303 303
255 253 250 250 253 255 257 260 264 266 268 270 273 275 279 286 290 290 285 281 277 272 273 274 273 280 285 275 261 259 265 265 251 237 234 232 223 218 225 234 242 247 250 252 252 252 256 262 264 265 265 264 264 263 263 261 261 261 262 263 265 269 274 279 284 290 295 297 302 306 307 305 304 303 304 304 304 305 309 311 310 308 307 309 310 310
262 261 257 256 256 258 259 262 266 269 268 267 271 277 283 288 287 275 266 278 284 279 276 279 281 285 289 282 263 257 264 267 255 243 235 223 212 215 229 238 245 249 250 252 255 257 261 265 266 267 268 266 264 263 261 259 258 258 258 260 263 269 274 279 285 291 294 297 303 307 306 305 304 305 305 305 304 306 309 311 311 312 314 317 317 314
273 271 266 262 261 265 266 264 267 271 270 268 271 278 286 287 278 269 273 283 289 287 284 285 284 285 286 281 267 257 257 256 245 238 227 207 208 221 234 241 244 247 248 252 257 261 263 266 267 267 266 264 261 259 258 257 255 254 255 259 264 269 274 280 286 290 292 298 304 307 305 305 306 306 307 306 305 306 309 312 315 318 321 322 320 315
271 266 266 265 264 266 264 260 266 271 270 278 292 295 292 287 283 284 285 285 287 289 289 287 287 287 283 276 269 260 250 238 229 233 224 216 224 233 239 242 243 246 249 254 259 262 263 264 264 264 262 260 257 256 255 253 252 251 254 258 263 268 274 280 286 289 293 301 306 306 306 307 309 309 308 307 307 308 312 316 319 322 326 326 321 313
262 257 262 270 269 265 261 258 260 267 274 289 301 300 293 289 288 288 288 289 290 290 292 292 291 289 281 274 276 276 256 226 207 226 229 229 235 239 241 244 246 250 255 258 262 264 264 264 262 261 260 257 254 253 252 250 248 248 251 256 262 267 274 281 285 289 297 304 307 308 310 312 313 312 310 310 311 313 316 319 322 325 330 329 321 311
261 258 262 270 271 270 271 271 271 274 278 285 291 291 290 289 288 286 286 288 289 289 295 299 296 292 283 274 277 278 257 221 199 218 226 230 236 239 243 248 252 257 261 261 263 265 265 265 263 261 259 255 252 251 249 245 244 245 249 255 261 268 275 281 286 293 302 308 310 314 318 318 316 315 313 313 316 318 319 321 324 328 331 331 324 311
265 270 271 273 275 276 278 279 280 282 284 286 287 290 293 292 290 290 288 286 288 291 294 299 301 298 285 273 271 266 242 209 195 214 223 228 235 240 247 253 256 259 260 262 265 267 268 268 266 263 259 254 250 247 243 240 240 243 247 254 261 269 275 281 289 299 307 312 317 322 325 323 321 319 318 319 321 323 323 325 327 330 332 333 327 313
266 266 262 266 274 278 279 281 285 288 289 291 289 290 292 289 288 293 293 289 292 296 297 299 302 298 286 272 261 246 225 207 204 217 223 225 232 240 247 251 253 256 260 264 269 270 271 270 266 261 257 251 246 242 238 236 236 240 246 254 262 269 275 283 294 306 313 320 328 332 331 328 327 326 326 327 327 326 327 328 330 333 335 335 330 318
266 262 257 263 274 276 276 280 285 287 288 292 290 283 282 285 287 292 299 298 297 298 298 300 300 295 288 273 244 217 204 197 191 198 211 216 225 235 241 245 251 258 262 266 270 271 271 269 266 261 253 246 241 237 233 231 233 238 245 254 262 269 277 287 301 312 321 332 338 340 337 334 333 333 333 334 334 331 330 331 333 336 338 337 334 328
269 268 270 274 275 275 277 281 287 289 287 286 280 269 276 292 294 293 299 303 301 298 297 298 294 283 274 251 213 194 190 190 182 175 185 205 220 232 239 246 254 257 261 264 266 268 269 270 270 264 254 244 237 232 228 228 232 239 246 254 262 270 279 293 308 319 332 343 345 343 341 338 338 339 339 339 340 338 336 335 336 340 342 340 338 336
268 266 270 272 270 272 275 277 283 286 283 281 280 275 280 291 294 293 296 301 303 302 298 298 285 252 224 188 173 173 174 178 181 185 198 213 227 235 239 247 251 252 256 259 259 266 272 271 267 259 250 244 236 229 227 229 234 240 246 254 264 272 281 299 315 327 340 348 347 345 344 342 342 344 343 343 344 344 344 342 341 343 346 344 342 342
269 263 264 264 265 270 274 274 276 278 278 280 284 283 282 283 287 292 295 298 304 302 295 301 290 239 206 170 154 160 158 159 174 187 200 214 225 229 232 241 246 247 254 258 261 269 268 255 248 244 238 233 227 224 226 229 234 241 249 256 264 271 284 305 320 331 342 347 347 347 347 346 347 348 347 347 348 348 349 350 349 348 349 348 346 347
Height
3122 3122 3123 3123 3123 3123 3123 3123 3123 3123 3124 3124 3125 3125 3125 3125 3125 3125 3123 3123 3125 3126 3126 3127 3127 3127 3127 3127 3127 3126 3124 3124 3126 3126 3126 3126 3126 3126 3126 3127 3127 3128 3128 3128 3128 3128 3128 3129 3129 3130 3130 3130 3130 3130 3130 3130 3130 3130 3129 3129 3129 3128 3128 3128 3128 3127 3128 3128 3128 3128 3128 3127 3127 3128 3129 3130 3130 3130 3130 3131 3132 3133 3134 3135 3137 3139
3121 3122 3122 3121 3121 3121 3121 3122 3122 3123 3123 3124 3125 3125 3124 3124 3124 3123 3122 3122 3123 3124 3125 3125 3124 3124 3124 3125 3125 3124 3122 3122 3123 3124 3124 3124 3124 3124 3124 3124 3125 3125 3126 3125 3125 3126 3126 3127 3127 3128 3128 3128 3128 3128 3129 3129 3129 3129 3128 3128 3127 3127 3127 3126 3126 3126 3126 3126 3126 3126 3125 3125 3124 3124 3125 3126 3127 3127 3128 3128 3129 3129 3131 3132 3134 3135
3120 3120 3120 3120 3120 3120 3121 3121 3122 3122 3123 3123 3124 3124 3123 3122 3122 3121 3120 3121 3121 3122 3123 3123 3122 3121 3122 3122 3122 3122 3121 3120 3120 3120 3121 3121 3122 3121 3121 3121 3122 3123 3123 3123 3123 3124 3124 3125 3125 3126 3126 3126 3127 3127 3127 3127 3127 3127 3127 3127 3126 3126 3125 3125 3124 3124 3124 3124 3124 3124 3123 3123 3122 3121 3121 3122 3123 3124 3125 3126 3126 3126 3127 3129 3130 3131
3119 3118 3118 3119 3119 3120 3120 3121 3121 3122 3122 3122 3122 3122 3121 3120 3121 3120 3119 3119 3119 3120 3121 3121 3120 3118 3118 3118 3118 3118 3118 3117 3117 3116 3117 3118 3118 3119 3119 3119 3119 3120 3121 3121 3122 3122 3123 3123 3123 3124 3124 3125 3125 3125 3125 3125 3126 3126 3125 3125 3125 3124 3124 3124 3124 3123 3123 3122 3122 3122 3121 3121 3120 3119 3119 3119 3119 3120 3121 3122 3123 3123 3124 3125 3126 3128
3118 3117 3117 3118 3119 3119 3120 3120 3120 3121 3121 3120 3120 3120 3120 3119 3120 3120 3119 3118 3119 3118 3119 3119 3117 3114 3114 3115 3114 3114 3113 3112 3112 3113 3114 3115 3115 3116 3116 3117 3117 3119 3120 3120 3120 3121 3121 3121 3122 3122 3122 3123 3123 3123 3123 3123 3124 3124 3124 3124 3123 3123 3123 3122 3122 3121 3121 3121 3120 3120 3119 3119 3118 3118 3117 3116 3116 3116 3117 3118 3119 3120 3120 3121 3122 3124
3116 3116 3117 3117 3118 3118 3119 3119 3120 3120 3119 3118 3118 3118 3119 3119 3119 3119 3119 3118 3118 3117 3117 3118 3115 3109 3110 3112 3112 3111 3110 3109 3110 3111 3112 3113 3114 3114 3114 3115 3116 3117 3118 3118 3119 3119 3119 3120 3120 3120 3121 3121 3121 3122 3122 3122 3122 3122 3122 3122 3122 3121 3121 3120 3120 3119 3119 3119 3119 3118 3117 3117 3116 3116 3115 3114 3113 3113 3113 3114 3115 3116 3117 3118 3119 3120
3115 3115 3116 3116 3117 3117 3118 3118 3118 3118 3118 3117 3116 3116 3117 3118 3118 3118 3118 3118 3116 3115 3115 3116 3114 3109 3109 3110 3110 3110 3109 3109 3110 3110 3111 3112 3112 3113 3113 3114 3115 3115 3116 3117 3117 3117 3117 3118 3118 3118 3119 3119 3120 3120 3120 3120 3120 3120 3120 3120 3120 3120 3119 3119 3118 3117 3117 3117 3117 3116 3116 3115 3115 3114 3113 3113 3112 3111 3110 3111 3111 3112 3113 3114 3115 3116
3113 3114 3114 3115 3115 3116 3117 3117 3116 3116 3117 3116 3114 3115 3116 3117 3117 3117 3118 3117 3115 3115 3114 3114 3114 3112 3108 3107 3107 3108 3108 3108 3109 3109 3109 3110 3111 3111 3112 3113 3113 3114 3114 3115 3115 3115 3116 3116 3116 3117 3117 3117 3118 3118 3118 3118 3118 3118 3118 3118 3118 3118 3117 3117 3116 3116 3115 3115 3115 3115 3114 3113 3113 3112 3111 3110 3110 3109 3108 3108 3108 3109 3109 3110 3110 3111
3111 3112 3113 3113 3114 3114 3115 3115 3114 3115 3116 3114 3113 3115 3116 3116 3117 3116 3117 3116 3115 3115 3112 3110 3113 3110 3106 3104 3105 3105 3106 3107 3107 3108 3108 3108 3109 3110 3110 3111 3112 3112 3112 3113 3113 3113 3114 3114 3114 3115 3115 3116 3116 3116 3116 3117 3117 3116 3116 3116 3116 3116 3115 3115 3114 3113 3113 3113 3113 3112 3112 3111 3110 3110 3109 3108 3107 3107 3107 3106 3105 3105 3106 3106 3107 3107
3110 3111 3111 3111 3113 3113 3113 3113 3113 3114 3114 3113 3113 3114 3115 3115 3115 3115 3115 3115 3114 3113 3109 3108 3110 3108 3103 3102 3103 3103 3104 3105 3105 3106 3106 3107 3108 3108 3109 3109 3110 3110 3110 3111 3111 3112 3112 3112 3112 3113 3113 3114 3114 3114 3115 3115 3115 3114 3114 3114 3114 3113 3113 3112 3112 3111 3110 3110 3110 3110 3109 3108 3108 3107 3107 3106 3105 3105 3104 3104 3103 3103 3102 3103 3103 3103
3109 3109 3110 3110 3111 3112 3111 3111 3112 3112 3112 3112 3113 3114 3114 3114 3114 3114 3114 3114 3113 3109 3106 3105 3108 3107 3103 3100 3101 3102 3102 3103 3104 3104 3105 3105 3106 3106 3107 3107 3108 3109 3109 3109 3109 3109 3110 3110 3110 3111 3112 3112 3112 3112 3113 3113 3113 3112 3112 3112 3111 3111 3110 3110 3109 3109 3108 3108 3107 3107 3106 3106 3105 3105 3104 3103 3103 3102 3102 3101 3101 3100 3100 3100 3099 3100
3107 3107 3107 3108 3108 3109 3109 3109 3110 3110 3111 3111 3112 3113 3113 3112 3112 3112 3111 3112 3110 3104 3102 3103 3105 3107 3103 3099 3099 3100 3100 3101 3102 3103 3103 3104 3104 3104 3105 3105 3106 3107 3107 3107 3107 3107 3107 3108 3108 3109 3109 3110 3110 3110 3110 3110 3110 3110 3110 3109 3109 3108 3108 3107 3107 3106 3105 3105 3105 3104 3104 3103 3102 3102 3101 3100 3100 3100 3099 3098 3098 3098 3097 3097 3096 3096
3106 3106 3105 3106 3106 3107 3107 3108 3108 3108 3109 3110 3111 3112 3110 3106 3106 3106 3106 3106 3104 3099 3099 3102 3103 3103 3101 3098 3098 3099 3098 3099 3100 3100 3101 3101 3102 3102 3103 3103 3103 3104 3105 3105 3105 3104 3104 3105 3106 3107 3107 3107 3107 3108 3108 3108 3108 3108 3107 3107 3106 3105 3105 3104 3104 3103 3102 3102 3102 3101 3101 3100 3099 3099 3098 3097 3097 3097 3096 3096 3095 3095 3094 3094 3093 3093
3104 3104 3103 3103 3103 3104 3105 3106 3106 3106 3106 3107 3108 3108 3107 3102 3100 3101 3101 3098 3097 3096 3098 3100 3101 3100 3098 3095 3095 3096 3097 3097 3097 3098 3098 3098 3098 3099 3100 3101 3101 3101 3102 3102 3102 3102 3102 3102 3103 3104 3104 3104 3105 3105 3105 3105 3105 3105 3104 3104 3103 3102 3101 3101 3100 3100 3099 3098 3098 3098 3097 3097 3096 3096 3095 3094 3093 3093 3093 3092 3092 3091 3091 3090 3090 3089
3102 3101 3100 3101 3101 3102 3102 3103 3104 3105 3105 3105 3105 3106 3104 3101 3098 3097 3095 3092 3090 3093 3097 3099 3099 3096 3094 3092 3092 3093 3094 3094 3095 3095 3095 3095 3095 3095 3096 3097 3097 3097 3098 3099 3100 3100 3099 3100 3101 3101 3101 3101 3102 3102 3102 3102 3102 3102 3101 3101 3100 3098 3098 3097 3096 3096 3095 3095 3094 3094 3093 3093 3093 3092 3092 3091 3090 3089 3089 3089 3088 3088 3087 3087 3086 3086
3101 3100 3099 3100 3100 3100 3101 3102 3103 3103 3102 3102 3103 3103 3100 3099 3098 3095 3092 3091 3091 3092 3094 3095 3094 3091 3090 3090 3089 3090 3090 3091 3091 3091 3092 3092 3092 3092 3092 3092 3093 3094 3095 3096 3096 3097 3097 3098 3098 3098 3098 3099 3099 3099 3099 3099 3099 3098 3098 3097 3096 3095 3094 3093 3093 3092 3092 3091 3091 3090 3090 3089 3089 3088 3088 3088 3087 3086 3086 3085 3084 3084 3084 3083 3082 3082
3099 3098 3098 3098 3098 3099 3099 3100 3100 3100 3100 3099 3099 3099 3097 3098 3098 3096 3092 3093 3094 3092 3089 3088 3088 3088 3088 3086 3085 3086 3087 3087 3087 3087 3088 3089 3089 3090 3089 3089 3090 3090 3092 3093 3093 3094 3095 3095 3095 3096 3096 3096 3096 3096 3095 3095 3095 3095 3094 3094 3093 3091 3090 3090 3089 3089 3089 3088 3087 3087 3086 3086 3085 3085 3084 3084 3083 3083 3082 3081 3080 3080 3079 3079 3078 3078
3098 3096 3096 3097 3097 3096 3096 3096 3096 3097 3097 3097 3096 3096 3096 3096 3096 3095 3093 3091 3091 3087 3083 3082 3083 3084 3084 3081 3081 3083 3083 3083 3084 3084 3085 3086 3086 3087 3087 3086 3087 3088 3089 3090 3091 3091 3092 3093 3093 3093 3093 3093 3093 3093 3092 3092 3092 3092 3091 3090 3089 3088 3087 3087 3086 3086 3085 3084 3084 3083 3082 3082 3082 3081 3081 3080 3080 3079 3079 3078 3077 3076 3075 3074 3074 3073
3097 3095 3094 3095 3095 3093 3093 3094 3093 3093 3094 3094 3094 3094 3095 3094 3092 3092 3092 3089 3086 3082 3078 3078 3079 3080 3078 3077 3077 3079 3080 3080 3081 3081 3082 3083 3083 3084 3084 3084 3085 3086 3087 3088 3089 3090 3090 3090 3091 3090 3090 3089 3090 3090 3089 3089 3089 3088 3088 3087 3086 3085 3084 3083 3083 3082 3082 3081 3080 3079 3079 3078 3078 3078 3077 3076 3076 3075 3074 3074 3072 3072 3071 3070 3069 3068
3096 3095 3092 3092 3093 3091 3091 3092 3091 3091 3091 3091 3091 3091 3092 3091 3089 3088 3087 3086 3083 3078 3075 3073 3073 3072 3072 3073 3074 3075 3077 3078 3078 3078 3079 3079 3080 3080 3081 3082 3083 3084 3085 3086 3087 3087 3088 3088 3088 3088 3087 3086 3087 3087 3086 3086 3086 3085 3084 3084 3083 3082 3081 3080 3079 3079 3078 3078 3077 3076 3076 3075 3075 3074 3073 3073 3072 3071 3070 3068 3067 3067 3066 3065 3064 3063
3094 3094 3090 3089 3090 3089 3088 3089 3089 3089 3089 3089 3088 3088 3088 3088 3087 3085 3082 3082 3080 3075 3072 3069 3065 3064 3067 3069 3070 3072 3073 3075 3076 3076 3076 3077 3077 3078 3078 3079 3080 3081 3082 3083 3084 3085 3085 3086 3087 3086 3084 3084 3084 3084 3083 3083 3082 3082 3081 3080 3079 3078 3077 3077 3076 3075 3075 3075 3074 3073 3072 3072 3071 3071 3070 3069 3068 3066 3065 3063 3062 3061 3060 3059 3059 3058
3092 3092 3089 3087 3087 3085 3085 3086 3086 3086 3086 3086 3086 3085 3085 3085 3085 3082 3077 3076 3076 3073 3070 3068 3061 3059 3064 3066 3066 3069 3070 3071 3073 3073 3073 3074 3075 3075 3076 3076 3077 3078 3079 3080 3081 3082 3083 3084 3084 3082 3081 3081 3081 3080 3080 3079 3079 3078 3077 3076 3075 3075 3074 3073 3072 3072 3071 3071 3070 3069 3069 3068 3068 3067 3066 3065 3063 3062 3061 3059 3057 3055 3054 3053 3053 3052
3089 3089 3087 3084 3082 3081 3081 3082 3083 3083 3083 3083 3082 3081 3082 3082 3082 3080 3075 3073 3073 3070 3069 3067 3059 3056 3062 3064 3064 3066 3067 3069 3070 3070 3071 3071 3072 3073 3074 3074 3074 3075 3076 3077 3077 3078 3079 3080 3079 3078 3077 3078 3078 3077 3076 3075 3075 3074 3073 3072 3072 3071 3070 3070 3069 3069 3068 3067 3066 3065 3065 3064 3064 3063 3062 3060 3059 3057 3056 3054 3052 3050 3048 3048 3047 3046
3087 3087 3085 3081 3078 3076 3076 3078 3078 3078 3079 3079 3078 3078 3079 3078 3078 3077 3074 3072 3070 3067 3067 3065 3056 3054 3059 3061 3061 3062 3064 3065 3066 3067 3068 3068 3069 3070 3071 3071 3071 3071 3072 3073 3074 3075 3075 3075 3074 3074 3074 3074 3073 3073 3072 3071 3071 3070 3069 3069 3068 3067 3067 3066 3065 3065 3065 3063 3062 3061 3061 3060 3059 3058 3057 3056 3054 3052 3051 3049 3047 3045 3044 3042 3041 3041
3085 3086 3084 3081 3077 3073 3072 3072 3072 3073 3075 3074 3074 3075 3075 3075 3076 3074 3071 3070 3066 3063 3065 3061 3052 3052 3058 3058 3058 3059 3060 3060 3061 3063 3064 3064 3065 3066 3068 3068 3068 3068 3069 3070 3070 3070 3070 3070 3070 3071 3071 3070 3069 3068 3068 3068 3067 3066 3065 3065 3064 3063 3063 3062 3061 3061 3060 3059 3058 3058 3057 3056 3055 3054 3052 3051 3049 3048 3046 3044 3043 3041 3039 3037 3036 3035
3084 3084 3083 3081 3077 3072 3069 3069 3069 3071 3073 3072 3071 3072 3072 3073 3073 3070 3069 3068 3063 3061 3060 3055 3050 3051 3055 3056 3056 3057 3057 3056 3057 3058 3059 3059 3060 3062 3064 3064 3065 3065 3065 3066 3066 3067 3066 3066 3067 3068 3067 3066 3065 3064 3064 3063 3063 3062 3062 3061 3060 3059 3059 3058 3057 3057 3056 3055 3054 3053 3052 3051 3050 3049 3047 3046 3044 3043 3041 3039 3038 3036 3034 3033 3031 3030
3081 3080 3080 3080 3077 3073 3069 3068 3069 3071 3071 3069 3069 3069 3069 3069 3069 3069 3067 3064 3061 3059 3055 3052 3052 3052 3051 3052 3054 3055 3055 3054 3053 3054 3055 3056 3056 3057 3059 3060 3061 3061 3061 3062 3062 3063 3063 3063 3063 3064 3062 3062 3061 3060 3060 3059 3059 3058 3058 3057 3057 3056 3055 3054 3053 3053 3052 3051 3050 3049 3048 3046 3045 3044 3042 3041 3039 3038 3036 3034 3032 3031 3029 3028 3026 3025
3078 3077 3076 3076 3074 3071 3069 3067 3067 3069 3068 3067 3067 3065 3065 3065 3065 3065 3062 3059 3059 3057 3049 3048 3052 3050 3047 3049 3050 3052 3052 3051 3051 3051 3051 3052 3052 3052 3054 3055 3056 3056 3056 3057 3057 3058 3059 3059 3059 3059 3058 3057 3057 3056 3056 3055 3055 3055 3054 3053 3053 3052 3051 3051 3050 3049 3048 3047 3046 3045 3043 3042 3040 3039 3037 3036 3034 3032 3030 3028 3026 3025 3023 3022 3020 3019
3075 3072 3072 3073 3071 3068 3066 3065 3065 3065 3064 3064 3063 3061 3060 3060 3059 3058 3056 3055 3056 3052 3046 3046 3046 3044 3044 3045 3045 3047 3048 3047 3047 3048 3048 3048 3048 3048 3049 3050 3051 3052 3052 3052 3053 3053 3054 3055 3055 3054 3053 3053 3053 3052 3052 3051 3051 3051 3050 3050 3049 3048 3048 3047 3046 3045 3044 3043 3042 3040 3039 3037 3035 3034 3032 3030 3028 3026 3024 3022 3020 3019 3018 3016 3015 3013
3071 3068 3069 3070 3067 3064 3062 3062 3062 3062 3061 3059 3058 3055 3054 3053 3053 3052 3051 3051 3050 3047 3044 3044 3040 3037 3040 3041 3039 3041 3044 3042 3042 3042 3042 3042 3043 3044 3045 3046 3047 3048 3048 3048 3049 3049 3049 3050 3050 3050 3049 3049 3048 3048 3048 3047 3047 3047 3046 3046 3045 3044 3044 3043 3042 3041 3040 3039 3037 3036 3034 3032 3030 3028 3026 3024 3022 3020 3018 3016 3015 3013 3012 3010 3009 3007
3068 3066 3066 3066 3063 3059 3057 3058 3059 3058 3057 3055 3052 3049 3048 3048 3047 3047 3046 3045 3044 3041 3040 3040 3035 3032 3034 3035 3034 3035 3037 3036 3036 3036 3036 3037 3038 3040 3041 3041 3042 3043 3044 3045 3044 3044 3044 3045 3045 3046 3045 3045 3044 3044 3044 3043 3043 3043 3042 3042 3041 3040 3040 3039 3038 3037 3036 3034 3033 3031 3029 3027 3025 3023 3021 3018 3016 3014 3013 3011 3009 3008 3006 3005 3003 3002
3065 3063 3062 3063 3060 3054 3053 3055 3055 3054 3054 3050 3045 3042 3042 3042 3042 3041 3040 3040 3039 3037 3036 3035 3031 3027 3027 3030 3029 3029 3030 3029 3029 3029 3030 3031 3034 3036 3036 3036 3037 3038 3039 3040 3039 3039 3040 3041 3041 3041 3041 3041 3041 3040 3040 3039 3039 3039 3038 3038 3037 3036 3035 3034 3034 3033 3031 3030 3029 3027 3025 3022 3020 3017 3015 3013 3011 3009 3007 3005 3004 3002 3001 2999 2998 2996
3062 3060 3059 3059 3056 3050 3049 3051 3051 3051 3049 3042 3037 3037 3037 3037 3036 3035 3035 3035 3034 3034 3031 3029 3025 3023 3024 3025 3025 3024 3024 3024 3024 3024 3024 3025 3028 3030 3030 3032 3033 3033 3034 3034 3035 3035 3036 3037 3037 3037 3037 3037 3037 3036 3036 3036 3035 3035 3035 3034 3033 3032 3031 3030 3029 3028 3027 3026 3024 3022 3020 3017 3014 3012 3010 3007 3005 3003 3002 3000 2998 2997 2995 2993 2992 2990
3057 3057 3056 3056 3052 3047 3046 3047 3048 3047 3040 3032 3031 3034 3034 3033 3033 3032 3030 3029 3029 3028 3026 3023 3020 3019 3020 3020 3020 3019 3019 3021 3021 3020 3020 3021 3021 3023 3025 3027 3027 3028 3028 3029 3030 3031 3032 3032 3032 3032 3033 3033 3032 3032 3032 3032 3032 3031 3031 3030 3029 3028 3027 3026 3025 3024 3023 3022 3020 3017 3015 3012 3009 3007 3004 3002 3000 2998 2997 2995 2993 2992 2990 2988 2986 2984
3053 3052 3051 3051 3048 3044 3042 3044 3043 3037 3030 3027 3029 3031 3030 3030 3029 3027 3025 3024 3023 3022 3021 3019 3016 3015 3015 3015 3015 3014 3015 3016 3016 3014 3015 3016 3016 3018 3021 3021 3022 3023 3024 3025 3026 3026 3027 3027 3028 3028 3029 3028 3028 3029 3029 3028 3028 3028 3027 3026 3025 3024 3024 3023 3021 3021 3019 3018 3015 3013 3010 3007 3004 3002 2999 2997 2995 2993 2992 2990 2989 2987 2985 2983 2981 2978
3048 3047 3046 3045 3043 3040 3038 3037 3034 3028 3024 3025 3025 3025 3025 3025 3024 3022 3020 3018 3018 3018 3016 3014 3012 3011 3011 3011 3010 3009 3009 3009 3009 3009 3011 3012 3012 3014 3017 3017 3017 3018 3019 3020 3021 3022 3022 3023 3024 3024 3024 3024 3025 3025 3025 3025 3024 3024 3023 3022 3022 3021 3020 3019 3018 3017 3015 3013 3011 3009 3006 3003 3000 2997 2995 2992 2990 2989 2987 2986 2984 2982 2979 2977 2974 2972
3043 3042 3041 3040 3037 3036 3033 3030 3027 3024 3022 3021 3020 3020 3020 3020 3019 3019 3015 3012 3012 3013 3011 3009 3007 3006 3005 3004 3003 3002 3002 3002 3003 3004 3006 3007 3009 3011 3012 3013 3013 3014 3014 3016 3017 3018 3018 3019 3020 3020 3021 3021 3021 3021 3021 3021 3021 3020 3019 3018 3018 3017 3016 3015 3014 3013 3011 3009 3007 3004 3001 2998 2995 2993 2990 2988 2986 2984 2983 2981 2978 2976 2973 2970 2967 2965
3038 3037 3037 3035 3032 3031 3030 3026 3023 3021 3018 3017 3016 3016 3016 3016 3016 3016 3013 3008 3007 3007 3005 3004 3003 3001 3000 2999 2997 2996 2995 2995 2995 2997 3001 3003 3004 3007 3008 3009 3010 3010 3011 3012 3013 3014 3014 3015 3016 3017 3017 3017 3017 3017 3017 3017 3016 3016 3015 3015 3014 3013 3012 3011 3010 3009 3007 3005 3003 3000 2997 2994 2991 2988 2986 2984 2981 2980 2978 2976 2973 2970 2967 2963 2960 2957
3034 3033 3033 3031 3029 3028 3027 3023 3020 3017 3014 3014 3014 3013 3013 3013 3013 3014 3011 3006 3003 3003 3001 2999 2999 2997 2996 2995 2994 2992 2992 2990 2989 2992 2996 2997 2999 3002 3004 3005 3005 3006 3007 3008 3008 3009 3010 3011 3012 3013 3013 3013 3014 3014 3014 3013 3012 3012 3012 3011 3011 3009 3008 3007 3006 3005 3003 3001 2999 2996 2993 2990 2987 2985 2982 2980 2977 2975 2973 2971 2967 2964 2961 2958 2954 2949
3030 3029 3029 3027 3024 3024 3023 3021 3017 3014 3012 3012 3012 3010 3010 3010 3010 3011 3008 3001 2999 2999 2998 2996 2995 2994 2993 2992 2991 2991 2990 2988 2987 2990 2992 2993 2995 2998 2999 3000 3001 3002 3003 3004 3004 3006 3007 3008 3008 3009 3009 3010 3010 3010 3010 3009 3009 3009 3008 3008 3007 3006 3005 3004 3003 3002 3000 2998 2995 2993 2990 2987 2984 2981 2978 2976 2973 2971 2969 2966 2962 2959 2956 2952 2947 2940
3026 3026 3025 3023 3021 3021 3020 3017 3014 3011 3009 3009 3008 3007 3006 3006 3006 3006 3001 2997 2996 2996 2995 2993 2992 2991 2990 2989 2989 2988 2988 2986 2985 2986 2987 2990 2993 2995 2996 2997 2998 2999 3000 3000 3000 3002 3004 3004 3005 3005 3006 3006 3006 3006 3006 3005 3006 3006 3005 3005 3004 3003 3002 3000 2999 2999 2997 2994 2992 2990 2987 2984 2980 2977 2975 2972 2970 2967 2964 2961 2958 2955 2950 2945 2938 2932
3023 3022 3021 3020 3019 3017 3016 3013 3011 3008 3006 3005 3004 3004 3003 3003 3002 2999 2997 2995 2994 2993 2991 2990 2988 2987 2988 2987 2987 2986 2986 2985 2983 2983 2984 2987 2990 2992 2992 2993 2994 2995 2996 2997 2997 2999 3000 3001 3001 3001 3002 3002 3002 3002 3002 3002 3003 3003 3002 3002 3001 3000 2998 2997 2997 2995 2993 2991 2989 2987 2984 2981 2977 2974 2971 2969 2966 2963 2960 2957 2954 2950 2945 2938 2932 2927
3020 3019 3017 3017 3016 3014 3012 3010 3008 3004 3002 3002 3002 3001 3000 2999 2997 2995 2993 2993 2992 2990 2989 2986 2985 2985 2984 2984 2984 2984 2984 2984 2984 2983 2984 2985 2987 2988 2989 2990 2991 2993 2994 2994 2995 2996 2997 2997 2997 2998 2998 2998 2998 2998 2999 2999 3000 2999 2999 2999 2998 2996 2995 2995 2994 2992 2990 2988 2986 2984 2981 2977 2974 2971 2968 2966 2963 2960 2956 2953 2950 2946 2940 2934 2928 2923
3017 3015 3014 3013 3012 3010 3007 3005 3004 3002 3000 3000 3000 2998 2998 2996 2995 2992 2991 2989 2988 2988 2986 2983 2981 2982 2981 2980 2980 2981 2981 2982 2983 2982 2983 2984 2984 2985 2986 2988 2989 2990 2991 2991 2992 2992 2993 2994 2994 2994 2995 2995 2995 2995 2996 2997 2997 2996 2996 2996 2994 2993 2993 2992 2991 2989 2987 2986 2983 2981 2978 2974 2971 2968 2966 2963 2959 2956 2952 2949 2946 2941 2936 2930 2924 2920
3012 3012 3011 3010 3008 3007 3005 3002 3000 2999 2998 2998 2997 2996 2994 2993 2992 2990 2988 2986 2985 2984 2983 2980 2978 2978 2978 2978 2978 2978 2979 2980 2980 2980 2981 2981 2982 2983 2984 2985 2987 2987 2988 2989 2989 2989 2990 2991 2991 2991 2992 2992 2992 2992 2993 2994 2994 2994 2994 2993 2992 2991 2991 2990 2988 2987 2985 2983 2981 2978 2975 2972 2969 2966 2963 2960 2956 2952 2949 2945 2941 2937 2932 2927 2921 2917
3008 3008 3007 3005 3004 3003 3000 2998 2997 2997 2996 2995 2994 2993 2991 2990 2988 2986 2985 2983 2982 2980 2979 2978 2975 2974 2974 2975 2975 2976 2977 2977 2977 2977 2978 2979 2980 2981 2982 2983 2984 2985 2986 2986 2986 2987 2987 2988 2988 2988 2988 2989 2989 2989 2990 2991 2991 2991 2991 2990 2990 2990 2989 2987 2986 2985 2983 2981 2979 2976 2973 2970 2967 2964 2960 2957 2952 2949 2945 2942 2937 2933 2928 2923 2918 2914
3005 3004 3003 3001 3000 2999 2996 2994 2995 2995 2993 2992 2992 2990 2989 2987 2984 2983 2982 2980 2979 2977 2976 2975 2973 2971 2970 2971 2972 2973 2974 2975 2975 2975 2976 2977 2978 2979 2980 2981 2982 2983 2983 2983 2984 2984 2985 2985 2985 2985 2985 2986 2986 2987 2988 2989 2989 2989 2989 2989 2989 2988 2986 2985 2984 2983 2982 2980 2977 2974 2971 2968 2965 2961 2958 2954 2950 2946 2943 2939 2935 2930 2925 2920 2915 2911
3002 3001 2999 2998 2997 2994 2992 2991 2992 2991 2990 2990 2988 2987 2986 2983 2981 2981 2980 2977 2976 2975 2973 2972 2970 2968 2967 2967 2969 2971 2971 2971 2971 2972 2974 2976 2977 2977 2979 2979 2979 2980 2981 2981 2982 2982 2982 2982 2981 2982 2982 2983 2983 2984 2986 2987 2987 2987 2987 2987 2987 2986 2985 2984 2983 2982 2980 2978 2975 2972 2969 2966 2963 2959 2956 2951 2947 2944 2940 2937 2933 2928 2922 2916 2911 2907
2998 2996 2995 2995 2993 2990 2989 2989 2989 2988 2987 2986 2985 2983 2981 2979 2978 2978 2977 2975 2974 2972 2971 2969 2968 2967 2965 2964 2965 2967 2967 2967 2967 2970 2972 2975 2975 2976 2977 2977 2977 2978 2979 2979 2980 2980 2979 2979 2979 2979 2980 2980 2981 2983 2984 2985 2985 2986 2986 2986 2985 2984 2984 2983 2982 2981 2979 2977 2974 2971 2967 2964 2961 2957 2954 2950 2946 2942 2938 2934 2930 2926 2921 2915 2910 2905
2993 2991 2991 2992 2989 2987 2986 2987 2987 2985 2982 2981 2981 2980 2978 2977 2976 2975 2975 2973 2972 2970 2969 2968 2966 2965 2964 2962 2961 2962 2963 2964 2966 2968 2971 2974 2975 2974 2974 2975 2975 2976 2977 2978 2978 2978 2978 2978 2977 2977 2978 2978 2980 2981 2983 2984 2984 2985 2985 2984 2984 2983 2982 2982 2981 2980 2978 2975 2973 2969 2966 2963 2959 2956 2953 2949 2945 2941 2937 2933 2928 2924 2919 2914 2909 2905
2988 2987 2988 2988 2985 2983 2983 2984 2983 2980 2978 2977 2977 2976 2975 2974 2973 2973 2973 2971 2970 2969 2968 2967 2965 2964 2963 2961 2960 2960 2962 2964 2966 2968 2971 2973 2973 2973 2972 2973 2974 2975 2976 2977 2977 2977 2977 2976 2976 2976 2976 2977 2979 2981 2982 2983 2983 2983 2983 2983 2983 2982 2981 2981 2980 2978 2976 2974 2971 2968 2965 2962 2958 2955 2952 2948 2944 2940 2937 2933 2928 2923 2918 2913 2909 2904